Regional Weather Roundup
Issued by NWS

Home | Current Version | Previous Version | Text Only | Print | Product List | Glossary Off
Versions: 1 2 3 4 5 6 7 8 9 10 11 12 13 14 15 16 17 18 19 20 21 22 23 24 25 26 27 28 29 30 31 32 33 34 35 36 37 38 39 40 41 42 43 44 45 46 47 48 49 50

000
ASUS44 KMEG 020310
RWRTN
TENNESSEE HOURLY STATE WEATHER ROUNDUP
NATIONAL WEATHER SERVICE MEMPHIS TN
1000 PM CDT WED APR 01 2015

TNZ002-004-019-021-049-052-054-088>092-020400-
WEST TENNESSEE

CITY           SKY/WX    TMP DP  RH WIND       PRES   REMARKS
MEMPHIS INTL   MOCLDY    71  60  68 S9        29.96S
NWS MEMPHIS      N/A     66 N/A N/A MISG        N/A
JACKSON        MOCLDY    63  60  90 S3        29.98F
DYERSBURG      MOCLDY    66  48  52 SE7       29.97F
UNION CITY     CLOUDY    64  61  88 SE3       29.96F
PARIS          PTCLDY    64  52  63 SW6       29.98F
HUNTINGDON     PTCLDY    62  54  75 S5        29.98R
LEXINGTON      PTCLDY    63  61  94 SE6       29.99F
SAVANNAH       MOCLDY    64  64 100 CALM      30.01S
$$

TNZ008-025-027-028-033-062-065-066-020400-
NORTH MIDDLE TENNESSEE

CITY           SKY/WX    TMP DP  RH WIND       PRES   REMARKS
NASHVILLE      MOCLDY    61  36  39 SE5       30.04F
CLARKSVILLE    CLOUDY    63  38  39 SE7       30.00F
SMYRNA         MOCLDY    56  42  59 SE3       30.05F
COOKEVILLE     CLEAR     48  41  76 CALM        N/A
CROSSVILLE     PTCLDY    56  25  30 S3        30.12R
$$

TNZ061-075-076-078-094-096-097-020400-
SOUTH MIDDLE TENNESSEE

CITY           SKY/WX    TMP DP  RH WIND       PRES   REMARKS
FAYETTEVILLE   CLEAR     64  43  45 SE5       30.06F
TULLAHOMA      CLEAR     59  39  47 CALM      30.09S
WINCHESTER     CLEAR     57  46  67 SE3       30.08F
MCMINNVILLE    CLEAR     52  43  71 E53G99    30.09S SQUALL
COLUMBIA       CLEAR     66  48  52 CALM      30.02S
SHELBYVILLE    CLEAR     61  45  55 E7        30.07F
$$

TNZ017-018-042-046-047-020400-
NORTHEAST TENNESSEE

CITY           SKY/WX    TMP DP  RH WIND       PRES   REMARKS
TRI CITIES     PTCLDY    46  30  53 CALM      30.14R
ELIZABETHTON   CLEAR     43  28  56 NE5       30.16R
$$

TNZ012-013-036-069-073-074-020400-
CENTRAL EAST TENNESSEE

CITY           SKY/WX    TMP DP  RH WIND       PRES   REMARKS
KNOXVILLE      CLOUDY    57  30  35 E5        30.10S
OAK RIDGE      MOCLDY    55  36  48 CALM      30.12S
GATLINBURG     CLEAR     50  34  53 E3        30.11F
MORRISTOWN     CLEAR     54  34  47 CALM      30.14R
$$

TNZ083-085-099-020400-
SOUTHEAST TENNESSEE

CITY           SKY/WX    TMP DP  RH WIND       PRES   REMARKS
CHATTANOOGA    PTCLDY    58  44  60 CALM      30.10R
$$

SKY/WX REPORTED AS FAIR MEANS FEW OR NO CLOUDS BELOW
12 THOUSAND FEET.



USA.gov is the U.S. government's official web portal to all federal, state and local government web resources and services.